www.pogodaiklimat.ru

Погода и климат >> Архив погоды >> Россия >> Красноярский край >> Бахта


ПОГОДА в Бахте

  • Прогноз погоды в Бахте
  • Монитор погоды в Бахте
  • Климат города

АРХИВ ПОГОДЫ в Бахте

Время (UTC), дата Ветер
(напр.,м/с)
 
Видим.   Явления Облачность Т
(С)
Тd
(С)
f
(%)
Тe
(С)
Тes
(С)
Комфортность P
(гПа)
Po
(гПа)
Тmin
(С)
Tmax
(С)
R
(мм)
R24
(мм)
S
(см)
09 15.10 штиль 0 50 км 6/3 600 м
[Cu Sc Ci fib]
+1.5 -1.6 80 +1 +1 1024.3 1018.0
12 15.10 штиль 0 н/о 3/3 1000 м
[Sc]
-0.8 -3.0 85 -2 -2 1024.8 1018.5 +1.5
15 15.10 штиль 0 н/о 1/1 600 м
[Sc]
-2.2 -3.1 94 -3 -3 1025.1 1018.8
18 15.10 штиль 0 н/о ясно -3.2 -3.9 95 -4 -4 1025.4 1019.0
21 15.10 штиль 0 н/о 10/0
[Cs]
-2.3 -2.9 96 -4 -4 1025.3 1019.0
00 16.10 штиль 0 н/о {ливн. осадки} 10/10 600 м
[Cb cap]
-2.6 -3.3 95 -4 -4 1025.0 1018.7 -3.2 0.0
03 16.10 штиль 0 20 км слабый снег 10/0 2000 м
[As op]
-1.8 -2.9 92 -3 -3 1025.2 1018.9
06 16.10 Ю 2 20 км слабый ливневой снег 10/10 600 м
[Cb cap]
+0.4 -1.0 90 -3 -3 1024.8 1018.5
09 16.10 Ю 2 10 км слабый ливневой снег 10/10 600 м
[Cb cap]
+0.3 -0.8 92 -3 -3 1024.0 1017.7
12 16.10 Ю 2 н/о {ливн. осадки} 8/8 600 м
[Cb cap]
+0.3 -2.4 82 -3 -3 1023.4 1017.1 +0.4 0.3
15 16.10 штиль 0 н/о 8/8 600 м
[Sc]
-0.2 -3.7 77 -1 -1 1022.3 1016.8
18 16.10 штиль 0 н/о 4/4 600 м
[Sc]
-1.3 -3.6 84 -2 -2 1020.2 1014.0
21 16.10 штиль 0 н/о 8/8 600 м
[Sc]
-2.1 -3.6 89 -3 -3 1018.3 1012.1
00 17.10 штиль 0 н/о 9/9 600 м
[Cb cap]
-2.0 -2.9 94 -3 -3 1016.3 1010.1 -2.1
03 17.10 штиль 0 10 км туман местами 10/10 600 м
[Cb cap]
-2.9 -3.3 97 -4 -4 1014.7 1008.5 -2.9
06 17.10 Ю 4 50 км 9/9 600 м
[Sc]
-1.2 -3.5 84 -7 -7 1013.1 1006.9
09 17.10 Ю 2 50 км 9/9 600 м
[Cb cap]
+0.9 -1.7 83 -3 -2 1012.3 1006.1
12 17.10 Ю 4 н/о 9/9 600 м
[Cb cap]
-0.7 -4.5 75 -6 -6 1013.1 1006.9 +0.9
15 17.10 Ю 6 н/о 6/6 600 м
[Sc]
-2.0 -4.8 81 -9 -9 1013.8 1007.6
18 17.10 Ю 6 н/о 8/8 600 м
[Sc]
-1.8 -4.6 81 -9 -9 1013.7 1007.5
21 17.10 Ю 4 н/о 9/9 600 м
[Sc]
-1.6 -4.3 82 -7 -7 1013.9 1007.4
00 18.10 ЮВ 4 н/о 10/10 600 м
[Sc]
-0.9 -3.4 83 -7 -7 1013.2 1007.0 -2.0
03 18.10 ЮВ 4 50 км 10/10 600 м
[Sc]
+0.7 -2.2 81 -5 -5 1012.8 1006.6
06 18.10 Ю 4 10 км слабый ливневой снег {метель} 9/9 600 м
[Cb cap]
+0.9 -1.4 85 -4 -4 1012.5 1006.3
09 18.10 Ю 2 50 км {ливн. осадки} 9/9 600 м
[Cb cap]
+2.2 -3.1 68 -1 -1 1012.8 1006.7
12 18.10 Ю 4 н/о {ливн. осадки} 9/9 600 м
[Cb cap]
+1.2 -3.0 74 -4 -4 1013.7 1007.5 +2.2 0.0
15 18.10 Ю 4 н/о 10/10 600 м
[Cb cap]
+1.2 -2.6 76 -4 -4 1014.2 1008.0
18 18.10 Ю 4 н/о слабый ливневой снег 10/10 600 м
[Cb cap]
+0.4 -1.3 88 -5 -5 1013.7 1007.5
21 18.10 ЮВ 2 н/о слабый ливневой снег 10/10 600 м
[Cb cap]
+0.3 -0.5 94 -3 -3 1013.5 1007.3
00 19.10 ЮВ 2 н/о слабый ливневой снег 10/10 600 м
[Cb cap]
+0.1 -0.5 96 -4 -4 1013.7 1007.5 +0.1 0.6
03 19.10 ЮВ 2 10 км слабый ливневой снег 10/10 600 м
[Cb cap]
+0.3 -0.8 92 -3 -3 1013.9 1007.7
06 19.10 ЮВ 2 50 км {ливн. осадки} 10/10 600 м
[Cb cap]
+1.0 -0.1 92 -3 -3 1013.7 1007.5
09 19.10 Ю 4 50 км 10/10 600 м
[Cb cap]
+1.9 +0.3 89 -3 -3 1013.5 1007.3
12 19.10 Ю 4 н/о слабый ливневой дождь 10/10 600 м
[Cb cap]
+1.3 +0.2 92 -4 -4 1014.2 1008.0 +1.9 0.6
15 19.10 Ю 2 н/о слабый ливневой дождь 10/10 600 м
[Cb cap]
+1.3 +0.8 96 -2 -2 1014.7 1008.5
18 19.10 Ю 2 н/о слабый ливневой дождь 10/10 600 м
[Cb cap]
+0.9 +0.4 96 -3 -3 1014.5 1008.3
21 19.10 Ю 4 н/о {ливн. осадки} 10/10 600 м
[Cb cap]
+0.7 +0.4 98 -5 -5 1014.5 1008.3
00 20.10 Ю 4 н/о {ливн. осадки} 10/10 600 м
[Cb cap]
+1.4 +1.3 99 -4 -4 1014.3 1008.5 +0.7 1
03 20.10 Ю 2 50 км {ливн. осадки} 10/10 600 м
[Cb cap]
+2.1 +1.0 92 -1 -1 1015.5 1009.3
06 20.10 Ю 2 50 км {ливн. осадки} 8/0 2000 м
[Ac trans]
+3.1 +0.7 84 0 +1 1016.1 1010.0
09 20.10 ЮВ 2 50 км 9/9 600 м
[Cb cap]
+3.2 +0.3 81 0 0 1016.4 1010.3
12 20.10 штиль 0 н/о 3/3 600 м
[Sc]
+1.8 -0.4 85 +1 +1 1016.9 1010.7 +3.2 0.0
15 20.10 штиль 0 н/о {ливн. осадки} 8/8 600 м
[Cb cap]
+1.4 +0.6 94 0 0 1016.9 1010.7
18 20.10 ЮВ 2 н/о {ливн. осадки} 10/10 600 м
[Cb cap]
+1.0 -0.4 90 -3 -3 1016.6 1010.4
21 20.10 ЮВ 2 н/о 10/10 600 м
[Cb cap]
+1.2 -0.2 90 -2 -2 1015.7 1000.5
00 21.10 Ю 2 н/о 10/10 600 м
[Cb cap]
+1.2 +0.1 92 -2 -2 1015.2 1009.0 +1.0 0.4
03 21.10 ЮВ 2 50 км 9/9 600 м
[Cb cap]
+1.8 -1.0 82 -1 -1 1014.1 1007.9
06 21.10 Ю 2 50 км {ливн. осадки} 9/9 600 м
[Cb cap]
+2.0 -0.5 83 -1 -1 1013.2 1007.1
09 21.10 штиль 0 50 км 9/9 600 м
[Cb cap]
+2.3 -1.0 79 +1 +1 1012.0 1005.9
12 21.10 штиль 0 50 км 9/9 600 м
[Cb cap]
+2.3 -1.0 79 +1 +1 1012.0 1005.9
15 21.10 В 2 н/о 10/10 600 м
[Cb cap]
+1.9 -0.6 83 -1 -1 1007.9 1001.7
18 21.10 штиль 0 н/о {ливн. осадки} 10/10 600 м
[Cb cap]
+1.2 -1.1 85 0 0 1005.9 999.7
21 21.10 СВ 2 н/о 10/10 600 м
[Cb cap]
+0.8 -3.4 73 -2 -2 1003.7 997.5
00 22.10 штиль 0 н/о {ливн. осадки} 10/10 600 м
[Cb cap]
0.0 -2.4 84 -1 -1 1001.9 995.7 0.0 0.5 1
03 22.10 В 2 10 км слабый ливневой снег 10/10 600 м
[Cb cap]
+0.7 -1.6 85 -3 -3 1000.1 994.0

 

Местоположение метеостанции Бахта (Красноярский край, Россия): широта 62.47 долгота 89.00 высота над уровнем моря 57 м.

В архиве по умолчанию представлена погода в Бахте за последнюю неделю. Архивные данные за месяц целиком и за предыдущие месяцы, начиная с января 2011 года, Вы можете получить, выбрав интересующий диапазон дат из раскрывающегося списка и нажав кнопку "Ввод!".


*Определитесь, кто Вы:
робот инопланетянин человек

Внимание! Время в таблицах - всемирное. Для получения местного времени необходимо прибавить поправку, которая в Бахте равна 7 ч.

Смотрите также архив погоды в соседних городах и на ближайших метеорологических станциях:

Погода в Верхнеимбатске (Красноярский край, Россия) (93 км)
Погода в Боре (Красноярский край, Россия) (110 км)
Погода в Келлоге (Красноярский край, Россия) (140 км)
Погода в Кузьмовке (Эвенкия, Россия) (162 км)
Погода в Ворогове (Красноярский край, Россия) (164 км)
Погода в Верещагино (Красноярский край, Россия) (210 км)
Погода в Сыме (Красноярский край, Россия) (238 км)
Погода в Ярцеве (Красноярский край, Россия) (252 км)
Погода в Вельмо (Красноярский край, Россия) (283 км)
Погода в Тутончанах (Эвенкия, Россия) (306 км)

Пояснения к столбцам:

Ветер - указаны скорость ветра в м/с - средняя за 10 мин, порывы в срок и между сроками (в фигурных скобках) и направление, откуда дует ветер: С - северный, СВ - северо-восточный, В - восточный, ЮВ - юго-восточный, Ю - южный, ЮЗ - юго-западный, З - западный, СЗ - северо-западный.
Видимость - горизонтальная дальность видимости в метрах или километрах. При видимости от 1 до 10 км при отсутствии осадков обычно наблюдается дымка, при ухудшении видимости до 1 км и менее - туман. В сухую погоду видимость может ухудшаться дымом, пылью или мглою.
Явления - указаны атмосферные явления, наблюдавшиеся в срок или в последний час перед сроком; фигурными скобками обозначены явления, наблюдавшиеся между сроками (за 1-3 часа до срока); квадратными скобками обозначены град или гололедные отложения с указанием их диаметра в мм.
Облачность - указаны через наклонную черту общая и нижняя облачность в баллах и высота нижней границы облаков в метрах; квадратными скобками обозначены формы облаков: Ci - перистые, Cs - перисто-слоистые, Cc - перисто-кучевые, Ac - высококучевые, As - высокослоистые, Sc - слоисто-кучевые, Ns - слоисто-дождевые, Cu - кучевые, Cb - кучево-дождевые. Подробнее классификацию облаков см. в Атласе облаков (PDF).
T - Температура воздуха - температура, измеренная на высоте 2 м над землей.
Td - Температура точки росы - температура, при понижении до которой содержащийся в воздухе водяной пар достигнет насыщения.
f - Относительная влажность воздуха - влажноcть воздуха, измеренная на высоте 2 м над землей.
Te - Эффективная температура - температура, которую ощущает одетый по сезону человек в тени. Характеристика душности погоды. При расчете учитывается влияние влажности воздуха и скорости ветра на теплоощущения человека.
Tes - Эффективная температура на солнце - температура, которую ощущает человек, с поправкой на солнечный нагрев. Характеристика знойности погоды. Зависит от высоты солнца над горизонтом, облачности и скорости ветра. Ночью, в пасмурную погоду, а также при ветре 12 м/с и более поправка равна нулю.
P - Атмосферное давление - приведенное к уровню моря атмосферное давление.
Po - Атмосферное давление - измеренное на уровне метеостанции атмосферное давление.
Tmin - Минимальная температура - минимум температуры воздуха на высоте 2 м над землей.
Tmax - Максимальная температура - максимум температуры воздуха на высоте 2 м над землей.
R - Количество осадков - Количество выпавших осадков за период времени, мм. При наведении курсора мыши на число - период времени, за который выпало указанное количество осадков.
R24 - Количество осадков - Количество выпавших осадков за 24 часа, мм.
S - Снежный покров - Высота снежного покрова, см. При наведении курсора мыши на число - состояние снежного покрова и степень покрытия местности в баллах.